This demonstration page uses our WeatherBlox Daily Observations layout. Learn more.

Left ArrowRight Arrow

39.95238, -75.16362

Hourly Observations for January 19, 2022

Temp ( °F °C ) Dew Point ( °F °C ) Humidity (%) Winds ( mph kmh ) Pressure ( in mb ) Visibility ( mi km ) Precip ( " mm )
12:54 am 00:54 Clear 28 -2.2 19 -7.2 69 69 WSW 3 6 30.19 1022 10 16 0.00 0.00
1:54 am 01:54 Mostly Cloudy 30 -1.1 20 -6.7 66 66 SSW 6 9 30.19 1022 10 16 0.00 0.00
2:54 am 02:54 Mostly Clear 29 -1.7 20 -6.7 69 69 S 6 9 30.20 1023 10 16 0.00 0.00
3:54 am 03:54 Mostly Clear 30 -1.1 21 -6.1 69 69 Calm 30.18 1022 10 16 0.00 0.00
4:54 am 04:54 Mostly Clear 30 -1.1 22 -5.6 72 72 SE 6 9 30.16 1021 10 16 0.00 0.00
5:54 am 05:54 Mostly Cloudy 33 0.6 23 -5 66 66 S 5 7 30.16 1021 10 16 0.00 0.00
6:54 am 06:54 Mostly Cloudy 35 1.7 24 -4.4 64 64 S 14 22 30.14 1021 10 16 0.00 0.00
7:54 am 07:54 Mostly Cloudy 37 2.8 23 -5 57 57 SSW 13 20 30.15 1021 10 16 0.00 0.00
8:54 am 08:54 Mostly Cloudy 40 4.4 22 -5.6 49 49 SSW 16 26 30.14 1021 10 16 0.00 0.00
9:41 am 09:41 Mostly Cloudy 40 4.4 23 -5 51 51 SSW 13 20 30.13 1020 10 16 0.00 0.00
9:54 am 09:54 Mostly Cloudy 40 4.4 23 -5 51 51 SSW 15 24 30.13 1020 10 16 0.00 0.00
10:54 am 10:54 Mostly Cloudy 43 6.1 25 -3.9 49 49 SSW 15 24 30.09 1019 10 16 0.00 0.00
11:54 am 11:54 Mostly Cloudy 47 8.3 24 -4.4 41 41 SW 21 33 30.05 1018 10 16 0.00 0.00
12:54 pm 12:54 Mostly Cloudy 49 9.4 25 -3.9 39 39 SSW 16 26 30.02 1017 10 16 0.00 0.00
1:54 pm 13:54 Partly Cloudy 51 10.6 25 -3.9 36 36 SSW 17 28 30.01 1016 10 16 0.00 0.00
2:54 pm 14:54 Partly Cloudy 51 10.6 26 -3.3 38 38 SSW 15 24 29.98 1015 10 16 0.00 0.00
3:54 pm 15:54 Partly Cloudy 51 10.6 26 -3.3 38 38 SSW 13 20 29.98 1015 10 16 0.00 0.00
4:54 pm 16:54 Mostly Cloudy 50 10 27 -2.8 41 41 SSW 10 17 29.98 1015 10 16 0.00 0.00
5:54 pm 17:54 Mostly Cloudy 48 8.9 27 -2.8 44 44 SSW 8 13 29.99 1016 10 16 0.00 0.00
6:54 pm 18:54 Mostly Cloudy 46 7.8 27 -2.8 47 47 SSW 5 7 29.99 1016 10 16 0.00 0.00
7:54 pm 19:54 Mostly Cloudy 47 8.3 29 -1.7 50 50 SSW 8 13 29.99 1016 10 16 0.00 0.00
8:54 pm 20:54 Cloudy 48 8.9 29 -1.7 48 48 SSW 8 13 29.99 1016 10 16 0.00 0.00
9:54 pm 21:54 Mostly Cloudy 47 8.3 29 -1.7 50 50 SW 9 15 30.00 1016 10 16 0.00 0.00
10:54 pm 22:54 Cloudy 46 7.8 30 -1.1 54 54 SW 7 11 30.01 1016 10 16 0.00 0.00
11:54 pm 23:54 Cloudy 46 7.8 29 -1.7 51 51 SW 7 11 29.99 1016 10 16 0.00 0.00

Powered by AerisWeather